New Bedford, MA

4:26 AM EST on January 21, 2018 (GMT -0500)
New Bedford Regional

Weather History for KEWB - May, 2013

Change the Weather History Date:

Thursday, May 2, 2013

  Actual Average Record
Temperature  
Mean Temperature 54 °F -  
Max Temperature 72 °F 62 °F 89 °F (2001)
Min Temperature 37 °F 46 °F 33 °F (1999)
Degree Days  
Heating Degree Days 12    
Growing Degree Days 4 (Base 50)    
Moisture  
Dew Point 38 °F    
Average Humidity 76    
Maximum Humidity 100    
Minimum Humidity 29    
Precipitation  
Precipitation 0.00 in - - ()
Sea Level Pressure  
Sea Level Pressure 30.42 in    
Wind  
Wind Speed 2 mph (East)    
Max Wind Speed 14 mph    
Max Gust Speed 20 mph    
Visibility 7 miles    
Events Fog , Rain    
Averages and records for this station are not official NWS values.
T = Trace of Precipitation, MM = Missing Value Source: NWS Daily Summary

Daily Weather History Graph

Daily Weather History Graph

Search for Another Location

Airport or City:

Trip Planner

Search our weather history database for the weather conditions in past years. The results will help you decide how hot, cold, wet, or windy it might be!

Date:

Astronomy

May. 02, 2013 Rise Set
Actual Time 5:38 AM EDT 7:43 PM EDT
Civil Twilight 5:08 AM EDT 8:13 PM EDT
Nautical Twilight 4:31 AM EDT 8:51 PM EDT
Astronomical Twilight 3:50 AM EDT 9:31 PM EDT
Moon 1:30 AM EDT (5/2) 12:23 PM EDT (5/2)
Length of Visible Light 15h 05m
Length of Day
14h 04m
Waning Gibbous, 48% of the Moon is Illuminated
May 2
Waning Gibbous
May 9
New
May 18
First Quarter
May 25
Full
May 31
Last Quarter

Hourly Weather History & Observations

Time (EDT) Temp. Windchill Dew Point Humidity Pressure Visibility Wind Dir Wind Speed Gust Speed Precip Events Conditions
12:53 AM 41.0 °F - 39.9 °F 96% 30.46 in 10.0 mi Calm Calm - N/A   Clear
1:34 AM 41.0 °F - 39.2 °F 93% 30.45 in 1.5 mi Calm Calm - N/A   Clear
1:43 AM 39.2 °F - 37.4 °F 93% 30.45 in 3.0 mi Calm Calm - N/A   Clear
1:53 AM 39.9 °F - 39.0 °F 97% 30.45 in 10.0 mi Calm Calm - N/A   Clear
2:24 AM 39.2 °F - 37.4 °F 93% 30.44 in 1.8 mi Calm Calm - N/A   Clear
2:32 AM 39.2 °F - 37.4 °F 93% 30.44 in 3.0 mi Calm Calm - N/A   Clear
2:53 AM 39.9 °F - 39.0 °F 97% 30.43 in 10.0 mi Calm Calm - N/A   Clear
3:53 AM 37.0 °F - 36.0 °F 96% 30.44 in 6.0 mi Calm Calm - N/A   Clear
4:06 AM 37.4 °F - 37.4 °F 100% 30.43 in 1.5 mi Calm Calm - N/A   Partly Cloudy
4:09 AM 37.4 °F - 37.4 °F 100% 30.43 in 0.8 mi Calm Calm - N/A   Mist
4:24 AM 37.4 °F - 35.6 °F 93% 30.43 in 2.5 mi Calm Calm - N/A   Mostly Cloudy
4:28 AM 37.4 °F - 37.4 °F 100% 30.43 in 7.0 mi Calm Calm - N/A   Scattered Clouds
4:46 AM 37.4 °F - 35.6 °F 93% 30.43 in 2.5 mi Calm Calm - N/A   Mostly Cloudy
4:48 AM 37.4 °F - 35.6 °F 93% 30.43 in 1.5 mi Calm Calm - N/A   Scattered Clouds
4:53 AM 37.9 °F - 37.0 °F 97% 30.43 in 1.2 mi Calm Calm - N/A   Scattered Clouds
4:57 AM 37.4 °F - 37.4 °F 100% 30.43 in 3.0 mi Calm Calm - N/A   Partly Cloudy
5:38 AM 37.4 °F - 35.6 °F 93% 30.43 in 2.5 mi Calm Calm - N/A   Scattered Clouds
5:51 AM 37.4 °F - 35.6 °F 93% 30.43 in 0.8 mi Calm Calm - N/A   Mist
5:53 AM 37.0 °F - 36.0 °F 96% 30.43 in 0.5 mi Calm Calm - N/A Fog Fog
6:06 AM 37.4 °F - 37.4 °F 100% 30.43 in 1.2 mi Calm Calm - N/A   Partly Cloudy
6:13 AM 37.4 °F - 37.4 °F 100% 30.43 in 7.0 mi Calm Calm - N/A   Clear
6:53 AM 41.0 °F - 41.0 °F 100% 30.43 in 10.0 mi Calm Calm - N/A   Clear
7:53 AM 54.0 °F - 46.9 °F 77% 30.44 in 10.0 mi WNW 4.6 mph - N/A   Clear
8:53 AM 61.0 °F - 35.1 °F 38% 30.44 in 10.0 mi Calm Calm - N/A   Clear
9:53 AM 64.0 °F - 33.1 °F 31% 30.43 in 10.0 mi Calm Calm - N/A   Clear
10:53 AM 66.9 °F - 34.0 °F 30% 30.42 in 10.0 mi South 4.6 mph - N/A   Clear
11:53 AM 70.0 °F - 36.0 °F 29% 30.40 in 10.0 mi ESE 5.8 mph - N/A   Clear
12:53 PM 70.0 °F - 39.0 °F 32% 30.38 in 10.0 mi SSE 5.8 mph - N/A   Clear
1:53 PM 70.0 °F - 39.9 °F 33% 30.38 in 10.0 mi South 8.1 mph - N/A   Clear
2:53 PM 70.0 °F - 39.0 °F 32% 30.37 in 10.0 mi Variable 4.6 mph - N/A   Clear
3:53 PM 70.0 °F - 37.0 °F 30% 30.36 in 10.0 mi SE 11.5 mph - N/A   Mostly Cloudy
4:53 PM 66.9 °F - 37.9 °F 34% 30.36 in 10.0 mi East 9.2 mph - N/A   Mostly Cloudy
5:53 PM 64.0 °F - 39.9 °F 41% 30.37 in 10.0 mi ESE 8.1 mph - N/A   Mostly Cloudy
6:53 PM 57.9 °F - 39.9 °F 51% 30.39 in 10.0 mi ENE 9.2 mph - N/A   Overcast
7:53 PM 53.1 °F - 43.0 °F 69% 30.43 in 10.0 mi NE 12.7 mph - 0.00 in Rain Light Rain
8:53 PM 48.9 °F - 42.1 °F 77% 30.46 in 10.0 mi NE 13.8 mph 19.6 mph 0.00 in   Overcast
9:53 PM 48.9 °F - 39.9 °F 71% 30.45 in 10.0 mi NE 8.1 mph - N/A   Overcast
10:53 PM 46.9 °F - 39.0 °F 74% 30.45 in 10.0 mi North 3.5 mph - N/A   Clear
11:53 PM 45.0 °F 42.6 °F 39.0 °F 80% 30.45 in 10.0 mi North 4.6 mph - N/A   Clear